Погода в Игнатовке

Россия / Ульяновская область     53°56′58″N   47°39′13″E
темп.,
°C
ветер,
м/с
пор.,
м/с
влажн.,
%
обл.,
%
осадки,
мм/ч
давл.,
гПа
погр.,
м
18 мая, вт
вт1801:00+18всв455713 0.0 101780
04:00+16в226617 0.0 101714
07:00+20вюв235813 0.0 101689
10:00+26вюв34385 0.0 1016400
13:00+30юв44232 0.0 10151398
16:00+30юв45261 0.0 10152127
19:00+26в35462 0.0 101486
22:00+20всв36455 0.0 101572
19 мая, ср
ср1901:00+18в33585 0.0 101540
04:00+16всв376984 0.0 1015125
07:00+18в49745 0.0 1015301
10:00+24вюв57524 0.0 1015710
13:00+27вюв68435 0.0 10151313
16:00+27вюв78410 0.0 10151613
19:00+24в611500 0.0 1014437
22:00+20вюв514560 0.0 1014365
20 мая, чт
чт2001:00+19юв616600 0.0 1014536
04:00+17юв716650 0.0 1015524
07:00+18юв615662 0.0 1015596
10:00+21юв812560 0.0 1014890
13:00+24юв8114829 0.0 10141850
16:00+23ююв595396 0.0 1013809
19:00+20ю367192 0.3 1013280
22:00+18ююз1278100 0.6 101329
21 мая, пт
пт2101:00+15юз229046 0.8 101329
04:00+13ююз359370 1.4 1013105
07:00+15юз3484100 0.1 1013207
10:00+16ююз358282 0.2 1013354
13:00+20зюз566251 1.3 10131418
16:00+20з675917 2.1 10131313
19:00+18зюз48657 0.3 1014609
22:00+14зюз498630 0.3 1016202
22 мая, сб
сб2201:00+13з4987100 0.0 1017199
04:00+12зюз37855 0.0 1019176
07:00+13з357919 0.0 1020249
10:00+18зюз456077 0.0 1020930
13:00+21з454994 0.0 10201260
16:00+22сз234979 0.0 10201425
19:00+19ссв4565100 0.0 1020280
22:00+17в5969100 0.0 1020387